MST,Max TemperatureF,Mean TemperatureF,Min TemperatureF,Max Dew PointF,MeanDew PointF,Min DewpointF,Max Humidity, Mean Humidity, Min Humidity, Max Sea Level PressureIn, Mean Sea Level PressureIn, Min Sea Level PressureIn, Max VisibilityMiles, Mean VisibilityMiles, Min VisibilityMiles, Max Wind SpeedMPH, Mean Wind SpeedMPH, Max Gust SpeedMPH,PrecipitationIn, CloudCover, Events, WindDirDegrees
2012-9-1,101,88,75,64,60,54,69,46,22,29.92,29.83,29.74,10,10,10,14,5,23,0.00,0,,206
2012-9-2,103,89,75,67,61,57,60,42,24,29.98,29.85,29.75,10,10,9,36,5,44,T,1,Rain-Thunderstorm,209
2012-9-3,97,85,73,66,63,60,68,51,33,30.02,29.92,29.83,10,10,10,30,9,35,T,1,Rain,196
2012-9-4,91,81,71,67,64,61,79,59,38,30.12,29.97,29.86,10,10,10,17,7,22,T,2,Thunderstorm,202
2012-9-5,94,85,75,69,66,61,82,59,36,29.94,29.87,29.78,10,10,10,15,6,22,0.00,2,,276
2012-9-6,95,84,73,72,68,64,82,61,39,30.04,29.90,29.81,10,10,10,23,5,29,T,2,Rain-Thunderstorm,206
2012-9-7,87,80,72,70,68,65,87,68,48,30.08,29.95,29.86,10,10,10,16,8,21,0.00,4,Thunderstorm,272
2012-9-8,92,84,75,70,62,57,82,58,34,30.04,29.89,29.83,10,10,10,25,12,32,0.00,1,,109
2012-9-9,94,84,74,66,57,53,69,49,29,30.08,29.93,29.86,10,10,10,23,12,31,0.00,2,Thunderstorm,120
2012-9-10,93,81,69,67,64,57,74,53,32,30.07,29.95,29.85,10,10,9,35,6,43,0.27,4,Rain-Thunderstorm,176
2012-9-11,83,76,69,69,65,60,87,67,47,30.03,29.93,29.88,10,10,9,26,3,35,0.06,5,Rain-Thunderstorm,159
2012-9-12,87,78,68,70,65,60,93,68,42,30.09,29.94,29.86,10,10,8,15,6,20,0.01,2,Rain,268
2012-9-13,93,80,67,67,59,52,81,55,28,30.10,29.96,29.87,10,10,10,24,7,31,0.04,1,Rain-Thunderstorm,154
2012-9-14,88,79,70,51,49,45,47,36,25,30.15,30.02,29.95,10,10,10,29,15,37,0.00,0,,108
2012-9-15,90,78,66,47,42,37,45,31,16,30.08,30.01,29.94,10,10,10,23,10,30,0.00,0,,137
2012-9-16,93,78,63,49,43,37,52,33,14,30.13,29.98,29.90,10,10,10,15,7,22,0.00,0,,206
2012-9-17,92,78,64,54,51,46,60,42,23,30.09,29.93,29.85,10,10,10,15,5,21,0.00,0,,218
2012-9-18,97,82,67,56,50,40,68,41,14,29.98,29.91,29.84,10,10,10,12,5,18,0.00,1,,201
2012-9-19,99,83,67,48,38,21,49,28,7,29.97,29.89,29.83,10,10,10,14,6,24,0.00,0,,189
2012-9-20,100,87,74,49,41,33,38,24,10,30.07,29.87,29.80,10,10,10,13,6,22,0.00,0,,190
2012-9-21,100,87,73,47,40,33,38,24,10,29.91,29.83,29.76,10,10,10,14,5,26,0.00,0,,233
2012-9-22,100,87,73,45,40,34,35,23,10,30.00,29.86,29.80,10,10,10,29,6,43,0.00,0,,167
2012-9-23,101,86,70,45,40,29,38,23,8,29.95,29.88,29.82,10,10,10,13,6,18,0.00,0,,196
2012-9-24,97,83,69,48,42,36,40,26,12,29.95,29.86,29.79,10,10,10,14,6,21,0.00,0,,209
2012-9-25,94,81,68,49,45,42,44,31,17,29.96,29.81,29.73,10,10,10,17,6,24,0.00,1,,207
2012-9-26,93,80,66,54,45,33,58,36,13,29.97,29.81,29.75,10,10,10,15,7,29,0.00,0,,197
2012-9-27,93,81,68,50,45,42,47,33,18,29.93,29.87,29.82,10,10,10,13,5,18,0.00,0,,206
2012-9-28,87,80,72,53,49,46,46,36,25,29.91,29.86,29.82,10,10,10,26,10,31,0.00,1,,138
2012-9-29,94,80,66,52,47,43,53,36,18,29.99,29.90,29.83,10,10,10,15,7,59,0.00,0,,167
2012-9-30,98,82,65,47,39,29,52,31,10,29.96,29.88,29.81,10,10,10,17,6,23,0.00,0,,138